Wind_Speed
23 22 22 22 22 22 22 22 21 20 18 17 16 16 17 19 20 20 19 19 19 20 20 19 17 17 17 17 18 18 17 14 13 13 13 13 13 12 12 11 11 11 12 13 13 14 13 13 13 12 12 12 12 12 11 11 11 11 11 12 12 12 12 12 12 12 12 12 12 12 11 10 9 8 7 7 8 8 8 8 8 9 9 10 10
22 22 22 22 22 22 22 23 22 21 19 17 16 16 17 18 19 18 17 17 19 20 21 20 18 18 19 19 20 20 17 14 13 13 11 12 13 12 12 13 14 13 13 13 13 14 13 13 13 12 12 12 12 12 12 12 12 12 12 12 12 12 12 12 12 12 12 12 12 11 10 9 8 8 8 8 8 8 8 8 9 10 10 11 11
22 22 22 22 22 22 22 23 23 22 20 17 16 16 17 18 18 18 17 17 19 21 22 20 18 18 20 21 22 20 17 15 14 13 12 12 13 13 13 14 14 14 13 13 13 14 13 13 13 13 13 13 13 12 12 12 12 12 13 13 13 12 12 12 12 12 12 12 11 10 8 8 8 8 8 8 8 8 8 9 10 10 10 11 10
21 21 21 21 21 22 22 23 23 22 21 19 18 18 18 18 18 18 18 18 20 22 22 20 19 20 21 21 21 19 17 15 15 14 13 13 13 13 13 13 13 13 13 13 13 14 13 13 13 13 13 13 13 13 13 13 13 13 13 13 13 12 12 11 11 11 11 10 8 7 7 8 8 8 8 8 8 8 8 9 9 9 9 9 9
20 20 19 20 21 22 22 23 23 23 22 21 19 19 19 19 19 19 19 20 21 23 22 21 20 20 20 19 18 17 15 14 15 15 14 15 14 13 13 13 12 13 13 14 14 14 13 13 12 13 13 13 13 13 12 12 12 12 12 12 12 12 11 10 10 10 9 8 7 7 7 7 7 7 7 7 7 7 8 8 8 8 8 8 8
19 19 18 20 21 22 23 24 24 23 22 21 19 19 19 19 19 19 20 21 22 23 22 21 20 19 18 17 16 16 15 14 14 15 16 16 15 14 14 13 13 13 14 15 14 14 14 13 12 12 13 13 13 12 12 11 11 12 12 12 11 10 10 10 10 8 7 6 6 7 7 7 6 6 7 7 7 7 7 7 7 7 7 7 8
18 17 18 20 22 23 24 24 25 24 23 21 20 19 19 19 19 20 21 21 22 23 22 21 19 18 17 16 16 16 16 16 16 16 16 16 15 14 14 14 14 14 14 15 15 15 14 13 13 13 12 13 12 12 11 11 11 11 11 10 10 9 9 9 8 6 6 6 6 6 6 6 6 6 6 6 7 7 6 6 6 7 7 7 8
17 17 20 21 22 23 24 24 25 25 24 22 21 21 20 19 19 20 20 20 22 23 22 20 20 18 17 15 16 16 16 17 17 17 16 16 15 14 14 14 15 15 15 15 15 16 15 13 13 13 12 12 12 11 11 10 10 10 9 9 9 9 8 7 6 6 6 6 6 6 6 5 5 5 6 6 6 6 6 6 6 7 7 8 9
17 19 22 22 22 22 23 23 24 24 24 23 22 21 20 20 20 20 20 19 20 22 22 22 21 18 17 16 16 16 17 18 17 16 16 16 15 15 15 16 16 16 15 15 15 16 15 14 13 12 12 12 12 12 11 10 9 9 9 8 8 8 7 6 5 6 6 6 6 6 5 4 4 4 5 5 5 5 5 5 6 7 8 9 10
17 21 22 21 22 22 22 23 23 23 25 25 23 22 21 21 21 20 20 19 20 21 22 23 21 18 17 17 17 17 17 17 16 16 16 16 16 16 17 17 17 17 16 15 15 16 15 14 13 13 13 13 12 11 10 9 8 8 8 9 8 7 6 6 6 6 6 6 6 5 4 3 3 4 4 4 4 4 5 5 6 7 8 9 10
17 21 22 21 21 22 22 23 24 24 25 25 24 24 23 23 22 20 21 20 21 22 22 22 20 19 19 18 17 17 17 16 17 17 17 17 17 17 17 17 17 16 16 15 15 15 15 13 13 12 12 12 11 10 9 8 7 7 8 8 7 6 6 6 6 5 6 6 5 4 3 3 2 2 3 3 3 4 5 5 6 7 8 9 11
17 20 21 20 21 22 22 22 24 24 25 25 26 27 26 24 22 21 21 21 21 22 21 20 20 20 19 18 17 17 17 16 16 17 18 18 17 16 17 17 17 16 15 15 14 14 13 12 12 12 11 11 10 9 8 8 7 7 7 7 7 7 6 5 5 6 6 6 5 3 3 2 1 1 2 3 3 4 5 5 6 8 9 10 12
19 20 21 21 21 22 22 22 22 23 23 24 27 29 28 24 22 21 21 21 21 21 20 20 20 21 20 18 17 17 17 16 17 17 18 18 16 16 17 17 17 16 15 14 14 13 13 12 12 11 12 11 10 9 9 9 8 8 7 7 7 7 6 5 5 6 6 5 4 3 2 1 1 1 2 3 3 4 5 6 7 8 10 12 13
19 20 21 22 21 21 21 20 20 20 21 24 27 26 25 24 22 21 20 21 20 19 20 20 21 21 20 18 17 18 18 17 17 17 16 16 16 16 16 17 16 15 14 13 12 12 13 13 12 12 12 11 10 10 10 10 9 9 9 9 8 7 6 5 5 5 5 5 4 3 2 1 1 1 2 2 3 4 6 7 8 10 11 12 13
20 20 21 22 22 21 21 20 19 19 20 22 21 18 19 20 22 21 20 20 19 20 21 22 22 20 19 18 19 19 19 18 17 16 16 15 15 15 15 16 15 14 13 12 12 13 13 13 13 13 12 11 10 10 10 10 10 10 9 9 8 7 6 5 5 5 5 5 4 3 2 1 0 1 2 3 5 6 7 9 9 10 11 13 14
22 22 21 22 22 21 21 20 19 18 18 17 12 12 15 17 20 21 21 21 21 23 24 24 23 20 18 18 19 20 21 19 17 16 17 16 15 15 15 15 14 13 13 12 13 13 13 13 13 13 12 11 11 11 11 11 11 11 10 9 8 7 6 6 6 5 5 5 5 4 2 1 1 2 3 5 6 7 8 9 10 11 12 13 14
23 23 23 23 23 21 20 19 18 17 17 14 12 13 14 17 20 20 21 22 22 24 27 27 25 21 19 19 19 21 21 19 17 17 17 17 16 16 15 15 14 14 13 13 14 14 13 13 14 13 12 11 11 11 11 11 11 11 10 9 9 8 7 7 6 6 6 6 5 4 3 3 3 4 5 6 8 8 9 10 10 11 12 13 13
24 24 25 26 24 23 21 19 18 17 15 14 15 15 16 18 20 19 19 21 21 24 27 28 27 22 19 19 20 20 18 17 16 17 17 17 17 18 17 16 15 15 13 13 14 13 12 13 13 12 11 11 11 11 11 11 11 11 10 10 9 8 8 7 7 7 7 7 6 4 4 4 4 5 7 8 8 9 9 10 10 11 11 12 13
26 25 25 25 25 25 24 20 19 19 16 14 15 17 18 18 18 18 19 20 20 22 23 24 23 19 17 17 17 16 15 14 15 16 17 17 18 18 18 18 17 15 12 12 13 12 12 12 12 12 12 11 11 11 12 12 12 11 11 10 10 9 9 8 8 8 8 7 6 5 5 5 6 7 8 8 9 9 9 10 11 11 11 11 12
28 27 26 25 25 25 23 21 20 20 18 17 16 17 17 15 14 15 17 17 17 19 19 18 16 15 15 15 15 15 14 14 15 16 17 18 18 18 18 18 17 15 12 12 12 12 12 13 12 12 12 13 13 13 13 13 13 12 12 11 11 10 10 9 10 9 9 7 6 6 6 7 7 8 8 8 9 9 10 10 11 11 11 10 10
29 29 28 26 24 23 22 22 22 20 19 18 17 16 16 14 13 13 15 15 16 15 14 14 13 14 15 15 16 16 15 15 16 17 18 18 17 17 17 17 16 14 14 14 14 14 14 13 13 13 13 14 14 15 15 15 14 14 13 12 11 11 11 11 11 10 9 8 7 7 8 8 9 9 9 9 9 9 10 11 11 12 11 10 9
30 31 29 26 24 21 21 22 22 22 20 18 18 16 15 13 12 13 13 14 15 15 13 12 13 14 15 16 17 16 16 16 16 17 17 17 17 16 16 16 14 13 14 15 15 15 14 14 13 13 14 14 14 15 16 16 15 15 14 13 12 12 12 12 12 10 9 8 8 9 9 9 9 9 9 9 9 9 10 11 12 13 13 12 10
30 31 30 27 25 22 21 23 23 23 21 19 19 17 14 12 12 12 12 12 14 14 13 13 13 14 15 16 17 17 17 16 16 17 17 17 17 16 16 15 14 14 14 14 15 15 15 15 15 15 15 15 15 16 16 16 16 15 15 14 13 13 13 13 12 11 10 9 10 10 10 10 10 9 9 9 9 10 11 11 12 14 14 13 11
31 31 29 29 27 24 23 23 23 24 22 20 20 18 15 14 13 12 12 13 13 13 13 13 13 15 15 16 17 17 16 16 16 17 17 17 17 16 16 17 17 16 15 15 15 15 16 16 16 16 16 16 16 16 17 17 17 16 15 15 14 14 14 13 12 12 11 11 11 11 12 11 10 10 9 9 10 11 11 11 13 15 15 15 13
32 31 29 29 28 25 24 23 23 25 23 21 20 17 15 15 14 14 14 14 14 13 13 13 13 15 15 16 17 17 16 16 17 17 17 17 17 17 17 18 18 18 17 16 16 16 17 17 16 16 17 17 17 17 17 18 17 17 16 15 15 15 15 14 13 13 12 12 12 13 13 12 11 10 10 10 10 11 11 11 13 15 16 16 15
31 30 29 29 28 25 24 24 23 24 24 22 20 18 17 17 16 16 16 15 14 13 13 14 15 16 17 18 18 18 17 17 18 18 18 18 18 18 18 19 19 19 18 17 16 16 17 17 17 17 18 18 17 18 18 18 17 17 16 15 15 16 15 15 14 14 13 13 13 13 13 12 11 11 10 10 11 11 11 11 13 15 16 17 16
32 29 27 28 28 25 25 25 24 24 24 23 21 19 18 18 17 17 16 15 15 15 14 15 16 17 18 18 18 17 17 17 18 19 19 19 19 19 19 20 20 20 19 17 16 16 17 18 18 18 18 18 18 18 18 17 17 16 16 16 16 16 16 16 15 15 14 14 14 14 14 13 13 12 11 11 12 12 11 11 13 15 17 17 17
33 30 27 27 28 27 25 25 25 25 25 24 23 21 19 18 19 19 17 16 16 16 15 15 16 17 18 18 18 17 17 18 19 19 20 20 20 20 21 22 22 21 20 18 17 17 18 19 18 18 19 19 19 19 18 17 16 16 16 16 16 16 16 17 16 16 15 15 15 15 15 14 14 13 12 12 13 13 11 10 12 14 17 18 19
35 31 28 28 29 27 24 24 24 24 25 24 23 22 20 20 21 20 19 18 18 17 17 17 17 18 18 18 18 18 18 18 19 20 21 21 21 22 23 23 23 22 21 19 18 18 18 19 19 18 18 19 19 19 17 17 16 16 16 16 16 17 17 17 17 16 16 16 16 16 16 16 15 15 14 14 15 14 13 12 12 13 16 18 20
35 31 28 28 29 27 24 23 23 24 25 24 24 23 23 23 22 21 20 19 19 19 19 19 19 19 19 19 19 19 19 19 20 21 22 22 23 23 23 24 23 23 22 21 19 19 19 19 19 18 18 18 19 19 18 17 17 16 16 16 17 17 17 17 17 17 17 17 17 17 17 17 17 16 16 16 16 16 15 14 14 14 15 17 19
33 31 29 28 29 27 24 23 24 24 24 25 25 25 24 23 22 21 21 20 20 20 20 20 20 20 20 20 20 20 20 20 21 21 22 23 23 23 23 24 24 23 23 21 20 20 20 20 20 19 18 18 18 19 18 17 17 17 16 16 17 17 17 17 17 18 18 18 19 19 19 19 18 18 17 17 18 18 18 17 17 16 16 17 19
31 32 30 29 29 28 24 23 25 25 25 25 26 26 25 23 21 21 21 21 21 22 21 21 21 21 21 21 20 20 20 20 21 22 22 22 23 23 24 24 24 23 22 21 21 21 21 21 20 19 18 18 18 18 18 18 17 16 16 16 16 17 17 17 18 18 19 19 20 20 20 20 20 19 18 19 19 20 20 20 20 19 18 18 19
30 32 32 31 30 29 26 25 26 25 25 26 27 26 26 24 23 23 23 23 23 23 22 22 21 21 21 21 21 21 21 21 22 22 22 22 22 23 23 23 23 22 22 21 21 21 21 21 20 19 19 19 19 19 19 18 17 16 16 16 17 18 18 19 19 20 21 21 22 22 22 22 21 20 20 21 21 22 22 23 22 22 21 21 22
30 32 33 32 31 30 27 27 28 26 26 27 27 27 26 25 24 24 24 24 24 23 23 22 22 22 22 22 22 21 21 22 22 22 21 21 21 22 22 21 21 21 21 21 21 21 22 21 20 20 19 20 20 20 19 18 18 17 17 17 18 19 20 21 21 22 23 23 23 23 23 23 23 22 22 23 23 24 25 25 25 25 25 25 25
31 32 33 32 32 31 29 30 30 27 26 27 28 27 26 26 26 25 25 25 25 24 24 23 23 22 22 22 22 22 23 23 21 20 20 21 21 21 22 21 20 21 21 21 22 22 22 21 20 19 18 19 20 19 19 19 19 19 18 18 19 20 22 22 23 24 24 24 24 24 24 24 24 24 24 25 25 26 27 27 27 28 28 28 29
32 33 32 32 32 32 31 32 32 29 27 28 28 28 27 27 27 26 26 26 25 25 24 24 23 23 23 22 22 22 23 23 21 20 21 21 21 21 21 21 21 22 22 21 22 21 20 20 19 17 17 18 18 19 19 19 19 19 20 20 21 22 23 23 24 25 25 25 25 25 25 26 26 26 26 27 27 28 28 29 29 30 30 31 31
33 33 32 32 32 31 32 33 32 30 28 28 27 28 28 28 27 27 27 26 26 26 25 24 24 23 23 23 22 22 23 23 21 21 21 22 22 21 21 22 22 21 21 21 21 20 19 19 19 17 17 17 18 19 20 20 20 21 21 21 22 23 24 25 26 26 26 25 25 26 27 27 28 28 28 29 29 30 30 31 31 32 33 34 34
33 32 32 32 31 31 32 33 32 30 29 28 28 28 29 28 28 27 27 27 26 26 26 25 25 24 23 23 23 23 23 23 22 21 22 22 21 21 22 22 21 21 21 21 20 20 19 20 19 19 18 18 19 20 21 21 22 22 22 23 24 24 25 26 26 26 26 26 27 28 28 29 30 30 30 31 31 32 33 34 34 35 36 37 37
31 31 31 31 30 31 32 32 32 31 29 28 28 29 29 28 28 27 27 27 27 27 27 26 25 25 24 24 24 24 24 24 24 22 22 22 21 21 22 22 21 20 20 21 20 20 20 21 21 21 20 20 20 22 23 23 23 23 24 24 25 25 26 26 26 26 27 28 29 30 30 31 32 32 32 33 33 35 36 36 36 37 38 39 40
29 29 30 30 30 30 32 32 31 31 30 29 29 29 29 29 28 28 28 28 28 27 27 27 26 25 25 25 25 25 25 25 24 23 22 22 22 22 22 22 21 20 20 21 21 22 23 23 23 23 22 22 22 23 24 25 25 24 25 25 25 26 26 27 27 28 29 30 31 31 32 33 33 33 34 34 36 38 38 38 39 39 41 41 42
28 28 30 30 29 31 32 32 31 30 30 29 29 30 30 30 30 30 29 29 29 28 28 27 26 26 26 26 26 26 26 26 25 24 23 23 23 23 23 23 23 22 21 20 20 22 24 24 24 24 23 23 23 23 25 26 26 25 25 26 27 27 28 29 30 31 31 32 32 32 33 34 34 34 35 36 38 40 40 40 41 42 43 44 44
26 26 28 29 30 31 32 31 30 30 29 29 30 30 30 31 31 31 31 30 30 29 28 27 27 27 27 27 27 26 26 27 26 25 25 25 24 24 24 24 24 24 23 21 22 25 26 26 26 25 24 24 24 24 25 26 26 26 26 27 28 29 30 31 32 33 33 33 32 33 34 36 36 36 37 38 40 41 42 42 43 44 44 45 46
25 26 28 30 31 31 32 31 30 29 29 29 30 31 31 32 32 32 31 31 30 29 28 27 27 27 28 28 28 27 27 28 28 27 26 26 25 25 25 25 25 24 23 22 23 25 26 27 27 26 26 26 26 26 27 27 27 28 28 29 30 30 31 32 34 35 35 34 34 34 36 37 38 38 39 40 41 42 43 43 44 45 46 47 48
27 29 29 31 32 32 32 32 32 31 30 30 31 31 32 32 32 32 31 30 30 29 28 28 28 28 28 28 28 28 28 28 28 28 28 27 26 26 26 25 25 25 24 24 24 24 25 27 28 29 29 29 28 28 28 28 29 30 30 31 31 32 32 34 35 37 37 37 36 36 37 39 40 40 41 41 42 43 44 45 47 48 49 49 50
29 31 31 31 33 33 33 33 33 33 32 32 31 31 32 32 32 31 31 31 31 30 30 30 29 29 29 29 29 29 29 29 29 29 28 28 27 26 26 26 26 26 25 25 25 24 25 27 29 30 30 30 29 29 29 30 31 32 32 33 33 34 34 36 37 38 38 39 39 39 40 41 41 42 42 43 44 46 47 48 49 50 51 51 51
29 31 32 32 33 33 34 35 35 35 34 33 32 32 32 32 31 30 31 31 31 32 32 31 31 31 31 31 30 29 29 29 29 29 28 28 27 26 26 26 26 26 26 25 25 24 24 26 31 33 31 31 32 32 32 33 34 35 35 35 35 36 37 38 39 39 40 41 42 43 43 43 44 44 45 45 46 48 49 50 51 51 52 52 52
28 31 32 33 33 34 35 36 37 37 36 34 33 33 31 30 29 30 32 32 32 33 34 34 33 33 33 32 31 30 30 30 30 30 29 29 28 27 28 28 28 28 27 26 26 25 23 24 29 32 33 33 34 36 36 37 37 37 37 38 38 39 40 41 42 42 42 43 44 45 45 44 45 46 46 47 48 48 49 50 51 52 52 53 53
26 30 32 34 35 35 36 38 39 39 38 36 35 34 33 31 32 32 33 34 35 34 35 36 36 35 35 34 33 32 32 31 31 32 31 31 31 31 31 31 30 29 28 28 28 27 26 26 28 31 33 34 35 37 38 39 39 39 39 40 40 41 42 43 44 44 44 45 46 47 45 44 45 46 47 48 48 49 49 50 51 52 53 54 54
26 28 30 33 35 35 36 39 41 41 41 40 39 39 39 39 37 35 34 35 37 37 37 37 38 38 37 36 35 34 33 33 34 33 33 33 34 34 35 34 33 31 31 30 30 31 32 32 34 36 38 38 38 38 39 39 40 41 42 42 43 43 44 45 45 45 45 45 45 45 45 46 47 48 49 49 49 49 50 51 52 53 53 53 54
27 29 29 30 33 35 36 37 38 38 40 41 41 42 42 40 39 37 36 36 37 38 39 39 39 40 39 38 37 35 35 34 34 34 35 35 35 35 36 36 35 34 33 33 33 34 35 34 35 36 37 38 39 38 39 40 41 42 42 42 43 44 43 42 43 43 43 43 43 45 48 49 50 51 51 51 50 50 51 52 53 53 53 53 54
29 30 30 30 32 33 36 38 38 38 38 38 38 39 39 38 38 37 37 36 35 37 38 39 40 41 41 40 39 38 36 35 34 34 35 36 36 36 37 37 36 36 35 35 35 36 37 36 35 35 35 36 38 37 38 40 42 42 41 39 39 40 39 37 39 41 43 44 45 48 50 51 52 52 53 52 52 51 52 53 54 54 54 54 56
Wind_Direction
276 274 271 269 268 268 268 269 270 271 271 272 272 272 272 273 275 275 273 268 264 260 255 252 252 256 266 276 278 279 283 285 283 281 272 261 259 266 270 273 282 295 304 305 301 298 295 292 288 283 276 271 269 271 272 276 281 286 291 296 299 301 304 307 311 315 318 318 319 319 319 321 326 332 340 347 351 354 355 355 359 0 360 360 359
275 274 272 269 267 267 267 269 270 270 271 270 271 270 268 269 270 268 265 260 256 253 250 248 245 251 263 270 271 275 279 280 282 281 270 256 254 262 270 273 276 283 294 300 299 296 294 292 289 286 280 275 272 273 275 278 282 287 291 295 298 301 305 310 316 318 318 318 320 321 325 331 338 344 349 353 355 355 357 359 1 2 2 1 359
274 273 271 268 268 267 267 268 269 270 270 269 268 266 264 262 262 262 258 252 249 247 246 246 243 248 258 262 265 269 272 275 277 274 265 255 254 261 269 273 274 275 281 292 295 293 292 292 290 288 284 279 276 276 278 280 284 289 292 295 298 300 306 312 316 316 315 316 320 325 332 338 342 344 349 352 353 355 359 1 1 1 2 1 2
274 272 269 267 267 267 266 267 268 269 270 270 267 264 262 256 254 254 251 245 244 244 244 244 242 246 255 261 262 263 266 271 270 268 263 255 256 262 269 272 273 272 275 285 290 290 290 291 291 290 286 282 279 278 280 283 287 290 293 295 298 301 306 312 313 311 312 314 319 327 333 336 339 343 347 351 353 356 359 359 360 2 6 10 16
271 268 267 266 266 266 266 266 267 269 271 271 267 262 259 255 249 246 244 242 243 243 243 243 244 249 257 261 260 261 264 267 265 264 262 256 256 263 269 271 271 270 273 280 286 290 289 287 289 289 288 285 281 280 282 285 288 290 293 295 296 300 305 307 307 307 308 312 319 327 331 334 338 342 347 351 352 355 358 0 4 12 22 28 32
270 266 265 266 267 267 266 265 266 269 270 270 267 262 258 254 248 243 243 243 243 243 243 245 247 252 257 258 259 261 263 263 263 264 261 255 255 262 267 267 268 269 270 275 283 290 289 283 283 284 285 285 284 285 285 286 288 289 291 293 295 298 300 302 303 303 305 312 321 326 330 333 337 342 347 351 353 356 1 10 20 31 37 36 33
272 270 267 265 266 265 263 262 264 267 268 267 267 263 259 255 248 243 244 246 246 243 243 246 249 253 255 256 257 258 260 260 261 262 257 249 252 261 264 263 265 268 269 274 282 287 286 282 281 281 282 284 286 288 288 287 288 289 289 290 292 293 295 296 297 298 304 314 321 326 331 333 338 343 349 355 357 1 12 26 36 38 34 29 24
274 271 265 262 262 261 261 261 263 265 267 267 266 264 260 254 247 243 244 247 246 242 243 247 248 251 253 252 253 254 256 256 257 255 247 242 248 259 262 262 265 269 272 277 283 285 283 280 279 280 280 281 283 284 284 285 286 287 287 285 286 287 289 289 290 297 307 315 321 327 332 333 338 345 353 360 3 11 25 35 36 30 24 18 13
273 266 262 261 261 261 261 261 261 263 266 267 266 264 262 255 247 242 241 245 246 244 245 248 249 251 252 248 247 250 252 254 252 245 240 241 250 258 261 262 266 271 276 280 283 283 280 277 277 279 278 278 280 279 280 283 284 284 282 280 280 280 278 278 286 297 307 314 321 326 329 329 335 348 359 7 12 23 31 30 26 22 15 8 1
271 265 262 262 262 263 261 260 261 263 265 266 266 266 263 257 248 240 238 240 246 249 248 248 250 250 248 246 244 247 252 251 242 236 239 245 251 257 260 262 266 271 276 280 281 280 278 277 279 279 278 277 276 277 279 280 279 276 272 271 270 268 268 277 288 299 308 313 317 319 319 321 334 354 8 17 23 28 27 21 17 11 4 356 349
272 267 265 264 264 264 262 263 264 263 263 266 268 269 265 257 248 240 236 237 242 249 251 248 248 248 245 244 243 246 250 244 237 237 243 247 250 255 260 263 264 268 274 276 275 275 277 278 280 279 275 273 273 276 278 275 271 266 263 262 261 262 272 284 294 305 309 308 307 307 307 315 337 4 18 23 25 23 18 12 6 358 349 343 338
273 269 266 265 265 265 264 266 265 264 266 269 271 272 267 257 246 239 236 237 240 247 251 245 242 245 245 242 242 246 244 240 241 244 247 249 250 254 259 259 260 266 273 273 271 271 274 277 277 273 266 266 271 273 271 268 265 261 255 251 256 267 278 285 295 301 301 299 296 292 292 303 346 17 19 21 19 13 5 358 349 342 337 334 332
274 272 271 268 266 267 268 267 266 269 272 275 279 275 264 253 244 239 237 239 241 245 248 245 242 244 244 240 239 243 240 239 244 246 248 249 251 256 258 258 262 268 271 269 268 268 272 275 271 266 261 262 265 265 265 264 260 255 249 249 256 266 274 279 289 293 291 288 279 270 271 284 358 15 17 13 3 352 346 339 333 330 331 332 335
274 272 271 268 267 269 271 272 273 276 279 283 283 270 250 241 240 241 239 238 240 242 243 243 242 244 245 239 231 234 235 237 244 246 247 249 252 254 255 259 264 267 267 265 265 266 270 272 268 262 259 260 259 257 262 262 256 250 248 253 259 261 269 277 283 286 281 269 258 251 247 263 347 8 4 345 334 332 328 324 324 328 332 336 341
272 269 267 267 268 268 269 274 277 279 288 291 277 248 231 234 238 240 240 238 239 243 244 242 241 242 244 237 225 227 232 235 243 249 251 252 253 253 254 260 263 263 264 263 264 268 270 269 265 260 258 258 257 256 259 258 252 248 249 256 259 260 268 276 279 275 263 250 243 237 229 235 293 319 321 318 317 317 316 319 325 331 336 341 346
269 267 265 265 266 267 267 271 273 275 286 292 271 240 236 235 235 238 243 244 241 243 246 241 237 238 238 233 225 226 232 236 242 249 252 254 256 257 258 260 261 262 263 266 269 270 269 267 261 257 257 257 255 254 255 253 250 250 252 255 256 259 267 272 272 261 248 238 234 230 225 234 259 288 303 307 308 309 313 321 329 335 340 344 348
269 266 266 266 267 270 270 268 269 271 276 277 270 261 252 238 234 238 246 249 242 243 247 240 232 233 233 229 228 229 232 236 242 249 253 255 256 257 258 260 262 265 267 272 274 270 268 265 260 256 254 253 253 253 251 250 251 252 254 254 254 257 263 267 261 247 236 230 228 229 231 248 268 289 298 300 302 308 317 326 331 336 341 344 348
270 267 265 267 271 273 271 267 265 267 267 265 268 268 264 251 239 236 243 246 241 243 245 235 228 231 231 227 228 231 233 237 244 251 255 256 256 257 259 260 261 264 269 274 274 270 267 264 260 254 251 252 253 253 253 253 254 255 256 256 255 257 261 262 253 240 229 224 226 230 240 258 275 286 291 297 303 312 321 326 329 334 338 342 346
269 268 265 263 266 266 266 265 261 262 261 261 264 262 266 262 244 235 236 238 239 238 235 229 223 227 231 230 231 234 238 242 247 252 254 255 255 256 258 260 261 262 266 270 272 271 266 262 259 253 251 254 256 256 256 257 257 256 256 256 255 258 261 257 247 236 226 224 227 234 247 262 274 282 289 297 305 314 320 322 326 329 335 340 344
270 269 265 260 261 261 260 259 255 257 261 260 259 255 260 261 248 236 227 227 235 233 227 224 222 227 233 238 238 239 243 246 249 251 251 252 253 254 257 260 264 265 262 259 261 264 263 262 258 253 253 256 259 259 259 258 257 257 256 256 255 258 258 251 242 232 225 225 230 240 252 263 273 280 287 296 305 311 315 319 322 325 329 335 339
272 269 264 261 262 260 254 252 252 254 257 257 256 253 253 258 258 244 227 225 233 233 228 227 230 234 236 238 239 241 246 249 249 250 251 251 252 254 258 261 264 266 264 260 258 258 259 260 257 254 256 260 262 262 260 259 257 256 256 255 255 257 255 248 239 230 225 227 234 244 256 265 272 278 285 294 302 307 311 315 319 320 321 325 331
272 268 264 263 262 258 252 251 252 253 253 251 250 249 250 258 259 243 229 228 230 232 233 232 233 235 235 237 240 244 248 249 250 252 252 252 252 254 258 259 261 264 267 266 263 261 259 258 257 257 259 262 264 263 261 258 255 255 255 254 255 256 252 244 236 228 226 229 237 248 259 265 269 275 284 293 300 304 308 313 316 317 317 318 320
269 267 266 264 262 260 256 253 253 253 250 245 245 247 249 252 250 241 235 233 230 230 234 233 233 236 238 241 244 245 247 248 249 250 251 251 251 252 252 251 253 255 258 259 261 261 259 257 258 258 260 261 262 262 260 256 253 254 254 254 254 253 249 242 235 229 227 231 241 253 260 263 266 274 284 293 299 303 306 313 317 316 314 313 313
265 263 263 262 260 260 257 253 251 252 248 242 243 247 248 248 248 250 249 244 240 240 242 241 240 241 244 246 246 246 245 246 247 248 248 250 250 250 249 249 252 254 254 255 256 258 258 258 259 260 260 260 260 260 258 255 252 253 254 254 254 251 246 240 234 229 229 235 245 255 259 260 264 273 284 292 298 301 306 315 318 314 311 309 307
260 258 258 257 256 256 256 255 253 252 248 243 243 242 243 246 247 247 247 246 245 244 242 242 241 242 244 244 244 243 243 245 246 246 248 249 249 250 250 253 258 260 260 259 259 260 262 263 262 262 262 261 260 258 257 254 253 254 254 254 253 248 243 238 232 230 232 240 250 256 258 258 264 273 282 291 295 299 306 316 317 312 308 305 304
257 254 254 253 252 253 255 257 256 253 250 246 243 237 234 240 241 238 238 239 239 237 235 235 237 240 242 242 244 245 246 247 248 249 250 251 252 252 253 257 261 263 263 261 262 264 266 265 264 263 263 262 259 257 255 254 253 253 253 252 250 246 242 236 231 231 235 244 252 256 256 258 264 271 279 286 289 294 304 314 314 309 306 304 302
255 251 250 250 251 250 251 254 254 253 251 246 242 238 234 237 237 235 234 231 231 232 230 231 235 239 241 243 246 249 250 251 252 252 254 254 255 256 257 259 260 262 262 262 262 264 265 265 264 263 263 260 257 256 254 253 252 253 252 250 248 244 241 236 232 233 240 248 253 254 255 257 262 268 275 279 282 286 296 307 309 306 303 301 299
253 249 246 246 247 247 247 249 251 251 250 245 242 241 238 236 234 232 231 228 228 229 229 230 235 241 243 244 246 247 248 250 252 254 255 256 258 259 260 261 262 263 264 263 261 261 262 263 264 264 262 259 255 254 254 252 251 251 251 249 246 243 241 237 234 237 244 250 253 253 254 256 261 267 272 274 275 278 286 297 303 304 303 301 298
251 247 242 241 243 244 244 246 248 249 247 243 240 238 235 232 230 227 226 227 228 229 229 230 232 238 243 245 246 246 246 247 249 252 254 257 260 262 263 264 265 266 266 264 260 258 258 261 263 263 261 258 253 251 252 252 250 250 249 247 245 242 241 239 239 243 249 252 253 253 254 256 261 267 270 272 273 276 280 287 295 301 303 302 299
247 244 241 240 241 242 241 242 245 245 243 241 239 234 229 227 226 225 224 226 228 230 231 231 232 235 240 243 244 246 247 247 249 251 253 257 260 263 264 264 265 266 265 263 259 255 255 258 260 259 258 257 252 248 249 251 251 250 247 245 244 243 241 241 244 249 253 254 254 254 254 257 262 267 270 272 273 275 277 280 285 292 298 300 299
243 242 243 242 240 240 239 239 242 243 242 240 237 233 229 227 227 225 225 226 228 230 231 231 232 233 237 240 242 244 245 247 250 252 254 257 260 262 264 264 265 265 264 261 256 253 253 255 256 255 257 256 250 245 246 249 250 249 246 244 244 244 242 244 248 254 257 257 256 255 255 258 262 267 270 271 271 272 274 276 277 281 288 293 296
242 241 243 243 239 238 238 237 239 240 240 238 234 232 232 232 230 228 228 228 229 230 230 230 232 233 235 239 241 244 246 248 252 253 254 257 260 262 264 264 265 265 262 258 254 253 254 254 254 255 256 252 246 243 245 247 247 246 245 246 246 245 244 247 252 257 258 258 257 256 256 259 262 266 269 270 269 270 271 273 274 276 280 284 288
240 238 241 241 239 237 235 236 236 235 236 235 232 232 232 232 232 231 230 231 231 231 232 233 234 235 237 240 242 246 249 250 253 254 255 257 260 262 262 263 264 263 260 257 255 255 255 255 255 257 256 251 246 244 245 245 244 243 244 246 247 246 246 249 254 257 257 256 256 256 257 260 263 266 268 269 268 269 270 271 273 275 277 278 280
235 234 237 239 238 237 234 234 232 229 231 233 232 232 233 232 232 232 232 233 234 234 234 236 237 238 239 241 242 246 250 251 252 254 256 256 257 259 260 262 261 260 259 256 255 255 256 257 258 258 256 251 246 244 244 243 243 244 244 246 247 248 249 252 255 257 257 256 256 257 258 261 263 266 267 268 268 269 269 271 272 275 276 277 278
232 230 233 236 238 239 236 234 230 226 228 232 232 233 235 234 234 235 235 236 236 236 235 236 237 238 240 242 242 246 250 252 251 253 254 254 254 255 257 256 253 253 256 255 254 255 257 258 258 256 253 249 244 241 242 243 244 246 247 249 250 252 254 256 258 259 259 258 259 259 260 261 263 265 267 268 269 269 270 271 273 274 276 277 279
230 228 232 235 237 240 239 235 231 227 228 232 233 234 236 237 237 237 237 237 238 237 236 235 236 237 239 241 243 245 249 251 251 250 250 251 252 252 253 252 249 250 254 254 254 255 256 257 256 253 249 245 243 242 243 246 249 251 252 253 254 255 257 258 259 260 259 260 260 261 261 262 263 265 267 269 270 271 272 273 274 275 276 278 279
228 228 232 233 235 239 240 237 232 229 230 233 236 238 239 239 239 238 238 238 238 237 236 235 236 237 239 241 243 245 247 249 248 246 247 249 250 250 250 249 248 250 251 252 252 253 254 255 254 251 249 246 247 248 250 252 254 255 256 256 256 257 258 260 260 261 261 261 261 261 262 262 264 266 267 268 270 271 272 272 273 275 276 278 279
225 228 230 229 233 238 239 237 234 231 231 233 238 242 242 240 239 239 239 239 238 238 237 237 237 239 240 243 245 245 246 247 245 244 245 246 248 249 249 248 248 249 250 252 253 252 253 253 253 251 250 251 253 255 256 257 258 258 257 256 257 258 259 261 262 262 262 261 261 261 261 262 264 265 267 268 270 270 271 272 274 276 277 279 280
225 229 229 227 231 237 239 237 235 233 233 235 239 242 242 241 241 240 241 240 240 240 240 240 240 241 242 243 244 245 244 244 243 243 244 244 245 246 248 248 248 248 249 252 255 255 254 252 252 252 252 253 256 257 258 258 258 258 257 257 258 260 261 262 262 261 260 260 260 260 261 262 264 265 267 269 271 272 273 275 277 278 279 280 281
225 229 229 228 230 235 239 239 236 236 236 237 240 241 242 242 242 241 241 240 241 241 242 243 242 241 241 241 242 243 243 243 243 243 244 243 243 244 246 247 248 247 248 253 259 261 259 254 252 253 254 254 254 255 255 255 255 256 258 260 261 261 261 261 260 259 259 259 260 261 263 264 266 268 271 272 273 274 276 277 278 278 279 280 281
227 230 230 229 230 234 238 239 237 238 239 239 240 241 241 242 241 240 239 239 240 242 242 242 242 242 241 241 241 240 241 242 243 243 243 241 241 242 245 246 247 247 248 252 256 256 256 257 256 255 255 255 255 254 253 254 255 257 259 260 261 261 261 260 260 260 260 261 263 265 268 269 271 273 274 275 276 276 278 279 279 280 280 281 282
232 235 233 231 230 233 237 238 237 238 240 240 240 240 241 240 240 240 240 240 240 241 242 243 243 243 242 242 241 240 240 242 243 243 243 241 241 242 245 247 248 249 249 249 248 248 252 258 261 260 259 257 255 255 255 255 256 258 260 261 262 262 262 263 264 264 265 266 268 270 272 273 274 275 275 276 277 279 280 281 281 282 282 283 284
231 233 235 234 231 232 235 236 236 238 240 240 240 240 240 238 238 240 242 243 242 241 242 244 245 245 244 243 242 242 241 242 244 244 244 242 242 243 245 247 248 250 249 246 246 251 255 258 262 263 262 260 257 256 256 257 258 259 261 263 265 266 266 267 267 268 269 270 271 272 274 275 276 276 277 278 279 280 282 282 282 283 283 284 284
227 229 233 235 233 232 233 234 235 236 237 237 238 240 239 237 237 240 243 245 245 244 244 244 245 245 245 244 243 243 243 244 245 246 245 243 241 241 243 245 245 247 248 246 249 254 257 259 262 262 261 261 260 258 258 259 261 263 264 266 267 268 269 269 269 270 272 273 273 273 274 275 277 278 279 280 282 282 282 283 283 283 283 284 284
231 229 232 234 233 233 233 233 234 235 235 235 237 239 239 238 238 240 244 247 248 248 247 245 245 244 245 244 243 243 244 245 246 247 246 243 241 241 243 245 246 247 248 250 253 255 258 261 262 261 260 261 261 262 263 265 265 266 267 268 269 270 271 271 272 273 274 274 275 275 275 275 277 279 280 282 283 283 283 283 283 283 284 285 285
235 232 231 232 234 235 235 233 234 236 236 235 237 239 239 239 240 242 244 247 250 251 250 248 246 245 245 245 244 244 244 245 245 246 245 244 243 244 247 250 252 251 251 251 252 254 257 259 259 258 259 261 263 264 266 266 267 268 269 270 271 272 273 273 273 274 274 275 276 276 277 278 279 280 281 282 282 283 283 284 284 285 286 287 287
236 236 234 233 234 236 238 238 237 237 237 238 239 238 237 240 245 247 246 247 249 251 252 251 249 247 247 246 245 245 244 244 244 244 244 243 244 246 250 252 253 253 252 251 251 251 251 252 257 260 260 261 263 264 265 266 267 269 270 271 272 272 273 273 274 274 274 274 275 276 277 278 278 279 280 281 282 284 285 285 286 286 287 287 288
242 238 237 236 236 236 238 241 241 240 240 241 239 236 237 245 252 254 250 248 247 249 251 252 251 249 248 247 246 245 244 244 243 243 243 243 244 246 249 250 251 251 252 251 251 249 244 240 245 254 259 262 264 265 265 267 268 269 270 271 272 273 274 274 274 274 274 274 275 275 276 276 277 279 280 282 283 284 284 284 284 284 284 284 285
255 248 243 241 239 238 237 239 241 242 243 244 243 243 247 253 256 254 251 249 247 247 248 251 252 251 249 248 247 246 245 244 244 243 243 244 244 246 248 250 251 252 252 251 250 248 246 242 245 253 259 262 263 264 265 266 268 269 270 271 272 273 274 275 275 274 275 274 275 276 276 277 279 281 282 282 283 283 282 282 282 281 282 283 284
262 259 255 250 246 242 239 239 240 242 244 246 247 248 251 253 252 248 247 248 249 249 248 249 251 252 251 249 248 248 247 246 246 245 245 245 246 246 248 249 251 252 253 252 251 250 249 249 251 255 258 260 260 261 263 264 266 267 269 272 273 273 273 274 274 274 274 274 274 276 278 279 281 282 282 282 282 281 281 281 281 281 282 283 285
263 262 261 259 255 250 245 242 242 242 243 244 246 248 249 249 248 246 244 245 249 251 251 250 250 252 253 252 251 250 250 249 248 247 247 247 247 248 249 250 251 252 253 253 253 253 252 251 250 249 251 255 257 259 261 263 266 268 269 270 271 273 273 272 271 271 273 275 276 277 278 280 280 281 281 281 281 281 281 281 282 282 284 286 289
Height
5838 5838 5837 5837 5836 5836 5836 5836 5837 5837 5838 5839 5840 5840 5840 5839 5839 5838 5838 5839 5839 5839 5839 5840 5840 5840 5841 5841 5842 5842 5843 5843 5843 5843 5843 5843 5842 5842 5842 5842 5841 5841 5841 5840 5840 5839 5839 5838 5838 5837 5837 5837 5837 5837 5837 5837 5836 5836 5836 5836 5836 5836 5836 5836 5836 5836 5836 5835 5835 5835 5835 5834 5834 5833 5833 5832 5832 5831 5831 5830 5830 5830 5829 5829 5828
5836 5836 5835 5834 5834 5834 5834 5834 5834 5835 5836 5837 5837 5837 5837 5837 5836 5836 5836 5836 5836 5836 5836 5837 5838 5839 5839 5840 5840 5841 5841 5841 5841 5841 5841 5841 5841 5841 5841 5840 5840 5840 5840 5839 5839 5838 5838 5837 5837 5836 5836 5836 5836 5836 5836 5836 5835 5835 5835 5835 5835 5835 5835 5835 5835 5835 5835 5835 5834 5834 5834 5833 5833 5833 5832 5832 5831 5831 5830 5830 5829 5829 5829 5828 5828
5834 5833 5833 5832 5832 5832 5832 5832 5832 5832 5833 5834 5835 5835 5835 5835 5834 5834 5834 5834 5834 5834 5834 5835 5836 5837 5837 5838 5838 5839 5840 5840 5840 5840 5840 5840 5840 5840 5840 5839 5839 5839 5839 5838 5838 5838 5837 5836 5836 5836 5835 5835 5835 5835 5835 5835 5834 5834 5834 5834 5834 5834 5834 5835 5834 5834 5834 5834 5834 5833 5833 5833 5833 5832 5832 5831 5831 5830 5830 5829 5829 5828 5828 5827 5827
5831 5831 5831 5830 5830 5830 5830 5830 5829 5829 5830 5831 5832 5832 5832 5832 5832 5832 5832 5832 5832 5832 5832 5833 5834 5835 5835 5836 5837 5837 5838 5838 5838 5838 5839 5839 5839 5838 5838 5837 5837 5837 5837 5837 5837 5837 5836 5836 5835 5835 5834 5834 5834 5834 5834 5834 5834 5834 5834 5834 5834 5834 5834 5834 5834 5834 5834 5834 5833 5833 5833 5833 5832 5832 5831 5831 5830 5830 5829 5829 5828 5828 5827 5827 5827
5828 5828 5828 5828 5828 5828 5828 5827 5827 5827 5828 5828 5829 5829 5830 5830 5830 5830 5830 5830 5830 5830 5830 5831 5832 5833 5833 5834 5835 5835 5836 5836 5836 5837 5837 5837 5837 5837 5836 5836 5836 5835 5835 5835 5836 5835 5835 5835 5835 5834 5833 5833 5833 5833 5833 5833 5833 5833 5833 5833 5833 5833 5833 5833 5833 5833 5833 5833 5833 5833 5833 5832 5832 5831 5831 5831 5830 5830 5829 5828 5828 5827 5827 5827 5826
5825 5826 5826 5826 5825 5826 5826 5825 5825 5825 5825 5825 5826 5826 5826 5827 5828 5828 5828 5828 5829 5829 5829 5829 5830 5831 5831 5832 5832 5833 5833 5834 5834 5835 5835 5835 5835 5835 5835 5835 5834 5834 5834 5834 5834 5834 5834 5834 5834 5833 5833 5833 5833 5833 5833 5832 5832 5832 5832 5832 5832 5833 5833 5833 5833 5833 5833 5833 5833 5833 5832 5832 5831 5831 5831 5830 5830 5829 5829 5828 5827 5827 5827 5826 5826
5823 5824 5824 5823 5823 5823 5823 5823 5823 5822 5822 5823 5823 5823 5824 5824 5825 5826 5826 5826 5827 5827 5828 5828 5828 5828 5829 5829 5830 5830 5831 5832 5832 5832 5833 5833 5834 5833 5833 5833 5833 5833 5833 5833 5833 5833 5833 5833 5833 5833 5833 5832 5832 5832 5832 5832 5832 5832 5832 5832 5832 5832 5832 5832 5832 5832 5833 5833 5833 5832 5832 5831 5831 5830 5830 5830 5829 5829 5828 5828 5827 5827 5826 5826 5826
5821 5821 5820 5820 5820 5820 5821 5821 5820 5820 5820 5820 5821 5821 5821 5822 5822 5823 5823 5824 5825 5826 5827 5827 5826 5826 5827 5827 5828 5828 5829 5829 5829 5830 5831 5831 5832 5832 5832 5831 5831 5831 5832 5832 5832 5831 5832 5832 5832 5832 5832 5832 5831 5831 5831 5831 5831 5831 5831 5831 5831 5831 5831 5831 5832 5832 5832 5832 5832 5832 5831 5831 5830 5830 5830 5829 5829 5828 5828 5827 5827 5826 5826 5826 5826
5819 5818 5817 5817 5818 5818 5819 5818 5818 5817 5817 5817 5818 5818 5819 5819 5819 5820 5821 5822 5823 5824 5825 5825 5825 5825 5825 5825 5826 5826 5826 5826 5827 5828 5829 5829 5830 5830 5830 5830 5830 5830 5830 5830 5830 5830 5830 5831 5830 5831 5831 5831 5831 5830 5830 5830 5830 5830 5830 5830 5830 5830 5831 5831 5831 5831 5832 5832 5832 5831 5831 5830 5830 5829 5829 5829 5828 5828 5828 5827 5827 5826 5826 5826 5825
5816 5815 5814 5815 5816 5816 5816 5815 5815 5815 5814 5814 5815 5815 5816 5816 5817 5818 5819 5820 5821 5822 5822 5823 5823 5824 5824 5824 5824 5824 5824 5825 5825 5826 5827 5828 5828 5828 5828 5828 5828 5829 5829 5829 5829 5829 5829 5829 5829 5829 5830 5830 5830 5829 5829 5829 5829 5829 5829 5829 5829 5830 5830 5830 5831 5831 5831 5831 5831 5831 5830 5830 5829 5829 5829 5828 5828 5828 5828 5827 5827 5826 5826 5826 5825
5813 5812 5812 5813 5813 5813 5813 5813 5813 5812 5812 5812 5812 5813 5813 5814 5815 5816 5817 5818 5819 5819 5820 5821 5822 5822 5822 5823 5823 5823 5823 5823 5824 5825 5825 5826 5826 5826 5826 5826 5827 5827 5827 5827 5828 5828 5828 5828 5828 5828 5829 5829 5829 5828 5828 5829 5828 5828 5828 5828 5829 5829 5829 5830 5830 5830 5830 5830 5830 5830 5830 5829 5829 5829 5828 5828 5828 5828 5828 5827 5827 5826 5826 5825 5825
5811 5810 5810 5811 5811 5810 5810 5811 5810 5810 5810 5810 5810 5810 5810 5811 5812 5814 5815 5815 5816 5817 5818 5819 5820 5820 5821 5821 5821 5821 5821 5822 5822 5823 5823 5824 5824 5824 5824 5824 5825 5825 5826 5826 5826 5827 5827 5827 5827 5827 5828 5828 5828 5827 5828 5828 5828 5827 5827 5828 5828 5828 5829 5829 5829 5829 5830 5830 5829 5829 5829 5829 5828 5828 5828 5828 5828 5828 5827 5827 5826 5826 5825 5825 5824
5808 5808 5808 5808 5808 5808 5808 5808 5808 5807 5808 5808 5807 5807 5807 5808 5809 5811 5812 5813 5814 5815 5816 5816 5817 5818 5818 5818 5819 5819 5819 5820 5820 5821 5822 5822 5822 5823 5822 5823 5823 5824 5825 5825 5825 5825 5826 5826 5826 5826 5827 5827 5826 5826 5827 5827 5827 5827 5827 5827 5827 5828 5828 5828 5828 5828 5829 5829 5829 5828 5828 5828 5828 5828 5828 5828 5828 5827 5827 5826 5826 5826 5825 5824 5824
5806 5805 5805 5805 5805 5806 5805 5805 5805 5805 5805 5805 5804 5803 5804 5805 5807 5808 5809 5810 5811 5812 5813 5814 5815 5816 5816 5816 5817 5817 5817 5817 5818 5819 5819 5820 5821 5821 5821 5821 5822 5823 5823 5824 5824 5824 5824 5825 5825 5825 5825 5825 5825 5825 5826 5826 5826 5826 5826 5826 5826 5827 5827 5827 5828 5828 5828 5828 5828 5828 5828 5828 5828 5828 5827 5827 5827 5827 5826 5826 5826 5825 5825 5824 5823
5804 5803 5803 5803 5803 5803 5802 5803 5804 5803 5802 5802 5800 5799 5801 5803 5805 5806 5807 5808 5809 5809 5810 5811 5812 5813 5814 5814 5815 5815 5815 5816 5816 5816 5817 5818 5819 5819 5819 5819 5820 5821 5822 5822 5823 5823 5823 5824 5824 5824 5824 5824 5824 5824 5824 5825 5825 5825 5825 5825 5826 5826 5826 5826 5827 5827 5827 5827 5827 5827 5827 5827 5827 5827 5827 5827 5827 5826 5826 5826 5825 5825 5824 5823 5823
5802 5801 5801 5801 5801 5801 5801 5801 5802 5801 5801 5800 5798 5798 5800 5801 5803 5804 5804 5805 5806 5806 5807 5808 5809 5810 5811 5812 5812 5813 5813 5814 5815 5815 5815 5816 5817 5818 5817 5818 5819 5820 5820 5821 5822 5822 5822 5822 5822 5822 5822 5822 5822 5823 5823 5824 5824 5824 5825 5825 5825 5825 5825 5825 5826 5826 5826 5826 5827 5827 5827 5827 5826 5826 5826 5826 5826 5826 5825 5825 5825 5824 5823 5823 5822
5800 5798 5799 5798 5798 5799 5799 5799 5799 5799 5799 5799 5798 5798 5799 5800 5801 5802 5802 5802 5803 5804 5805 5806 5806 5808 5809 5809 5810 5810 5811 5813 5813 5813 5814 5815 5816 5816 5816 5817 5817 5818 5819 5820 5820 5820 5820 5820 5820 5821 5821 5821 5821 5822 5822 5823 5823 5823 5824 5824 5824 5824 5824 5825 5825 5825 5825 5826 5826 5826 5826 5826 5825 5826 5825 5825 5825 5825 5825 5824 5824 5823 5823 5822 5821
5798 5797 5797 5795 5795 5796 5796 5797 5797 5797 5797 5797 5796 5796 5797 5798 5799 5800 5800 5800 5800 5801 5801 5803 5804 5805 5806 5807 5808 5809 5810 5811 5812 5812 5812 5814 5814 5814 5815 5815 5816 5817 5818 5818 5818 5819 5819 5819 5819 5819 5820 5820 5820 5821 5821 5821 5822 5822 5822 5823 5823 5823 5823 5824 5824 5824 5824 5825 5825 5825 5825 5825 5825 5825 5825 5825 5824 5824 5824 5824 5823 5822 5822 5821 5821
5796 5795 5794 5793 5793 5793 5793 5795 5795 5794 5794 5794 5794 5794 5795 5795 5796 5797 5798 5798 5798 5798 5798 5800 5802 5803 5804 5805 5806 5807 5808 5809 5809 5810 5810 5811 5812 5812 5813 5814 5814 5815 5816 5817 5817 5817 5817 5817 5818 5818 5818 5819 5819 5819 5820 5820 5820 5821 5821 5821 5822 5822 5822 5822 5823 5823 5823 5824 5824 5824 5824 5824 5824 5824 5824 5824 5824 5823 5823 5823 5822 5822 5821 5820 5820
5793 5792 5792 5791 5790 5791 5791 5792 5792 5792 5792 5792 5792 5792 5793 5793 5793 5794 5795 5796 5796 5796 5797 5798 5800 5802 5803 5803 5804 5805 5806 5807 5807 5808 5808 5809 5810 5811 5811 5812 5813 5814 5814 5815 5815 5815 5816 5816 5816 5817 5817 5817 5817 5818 5818 5818 5819 5819 5819 5820 5820 5820 5821 5821 5821 5822 5822 5822 5823 5823 5823 5823 5823 5823 5823 5823 5823 5822 5822 5822 5821 5821 5820 5819 5819
5791 5789 5788 5787 5788 5788 5788 5789 5790 5790 5790 5790 5790 5791 5791 5791 5792 5792 5793 5794 5794 5795 5795 5797 5798 5800 5800 5801 5802 5803 5804 5805 5805 5806 5806 5807 5808 5809 5810 5811 5812 5813 5813 5813 5813 5814 5814 5814 5815 5815 5815 5816 5816 5816 5816 5817 5817 5817 5818 5818 5818 5819 5819 5820 5820 5820 5821 5821 5821 5821 5821 5821 5822 5822 5822 5822 5822 5821 5821 5821 5820 5820 5819 5818 5818
5789 5786 5785 5785 5785 5785 5786 5787 5787 5788 5788 5788 5789 5789 5789 5790 5791 5791 5791 5792 5793 5793 5794 5795 5796 5797 5798 5799 5800 5801 5802 5802 5803 5804 5805 5806 5807 5808 5809 5810 5810 5811 5811 5811 5812 5812 5812 5813 5813 5814 5814 5814 5814 5814 5814 5815 5815 5815 5816 5816 5817 5817 5818 5818 5819 5819 5819 5820 5820 5820 5820 5820 5820 5820 5820 5821 5821 5821 5820 5820 5819 5819 5818 5818 5817
5786 5784 5784 5783 5782 5782 5783 5784 5785 5785 5785 5786 5787 5787 5788 5788 5789 5789 5790 5791 5791 5792 5793 5794 5795 5796 5796 5797 5798 5799 5800 5800 5801 5802 5803 5804 5805 5806 5807 5807 5808 5808 5809 5809 5809 5810 5810 5811 5811 5812 5812 5812 5812 5812 5812 5813 5813 5814 5814 5814 5815 5816 5816 5817 5817 5818 5818 5818 5818 5819 5819 5819 5819 5819 5819 5820 5820 5820 5819 5819 5819 5818 5818 5817 5816
5782 5782 5783 5782 5780 5780 5781 5781 5782 5782 5783 5784 5784 5785 5785 5786 5786 5787 5788 5789 5790 5791 5791 5792 5794 5794 5795 5796 5796 5797 5798 5798 5799 5800 5800 5801 5802 5803 5804 5805 5805 5805 5806 5806 5807 5808 5808 5809 5809 5810 5810 5810 5810 5810 5811 5811 5811 5812 5812 5813 5813 5814 5814 5815 5816 5816 5816 5816 5817 5817 5817 5818 5818 5818 5818 5818 5819 5819 5818 5818 5818 5817 5817 5817 5816
5778 5778 5780 5780 5779 5778 5778 5779 5780 5780 5781 5782 5782 5783 5783 5784 5784 5785 5786 5787 5788 5789 5790 5791 5792 5792 5793 5793 5794 5794 5795 5796 5797 5798 5798 5799 5800 5801 5802 5802 5803 5803 5803 5804 5805 5806 5806 5807 5807 5808 5808 5808 5808 5808 5809 5809 5809 5810 5810 5811 5811 5812 5813 5813 5814 5814 5815 5815 5815 5816 5816 5816 5817 5817 5817 5817 5817 5817 5817 5817 5816 5816 5816 5816 5815
5773 5774 5776 5777 5777 5777 5777 5777 5778 5779 5780 5780 5780 5781 5782 5781 5781 5782 5784 5785 5786 5787 5788 5789 5789 5790 5790 5791 5791 5793 5794 5794 5795 5795 5796 5797 5798 5799 5799 5800 5800 5800 5801 5802 5803 5804 5804 5804 5805 5805 5805 5806 5806 5806 5806 5807 5807 5808 5808 5809 5810 5810 5811 5811 5812 5812 5813 5813 5813 5814 5814 5815 5815 5815 5816 5816 5816 5816 5816 5815 5815 5815 5814 5814 5814
5769 5770 5772 5773 5774 5774 5774 5775 5776 5777 5778 5778 5778 5779 5780 5780 5780 5781 5782 5783 5784 5784 5786 5786 5787 5787 5788 5789 5790 5792 5792 5793 5793 5793 5794 5795 5795 5796 5797 5797 5797 5798 5799 5800 5801 5802 5802 5802 5802 5803 5803 5803 5804 5804 5804 5805 5805 5806 5806 5807 5808 5808 5809 5810 5810 5811 5811 5811 5812 5812 5813 5813 5813 5814 5814 5814 5814 5814 5814 5814 5813 5813 5813 5812 5812
5764 5766 5768 5769 5770 5770 5771 5772 5773 5775 5775 5775 5776 5776 5777 5778 5778 5779 5779 5780 5781 5782 5783 5783 5784 5785 5786 5787 5788 5789 5790 5791 5791 5791 5791 5792 5793 5793 5794 5794 5795 5795 5796 5798 5799 5799 5799 5799 5800 5800 5800 5801 5801 5802 5802 5803 5803 5804 5805 5805 5806 5806 5807 5808 5808 5809 5809 5809 5810 5810 5811 5811 5812 5812 5812 5812 5813 5812 5812 5812 5811 5811 5811 5811 5810
5760 5763 5765 5765 5766 5766 5768 5769 5771 5772 5772 5772 5773 5774 5774 5775 5775 5776 5776 5777 5778 5779 5780 5780 5781 5782 5783 5784 5785 5787 5788 5788 5788 5789 5789 5789 5790 5790 5791 5791 5792 5793 5794 5795 5796 5797 5797 5797 5797 5798 5798 5798 5799 5799 5800 5800 5801 5802 5803 5803 5804 5805 5805 5806 5806 5807 5807 5807 5808 5808 5809 5809 5810 5810 5810 5810 5810 5811 5810 5810 5809 5809 5809 5809 5808
5756 5760 5762 5762 5762 5763 5764 5766 5768 5768 5769 5769 5770 5770 5770 5771 5771 5772 5773 5774 5775 5776 5777 5777 5778 5779 5780 5782 5783 5784 5785 5785 5786 5786 5786 5787 5787 5788 5788 5789 5789 5790 5791 5792 5793 5794 5794 5794 5795 5795 5796 5796 5797 5797 5798 5798 5799 5800 5801 5801 5802 5803 5803 5804 5805 5805 5805 5805 5805 5806 5807 5807 5807 5808 5808 5808 5808 5808 5808 5807 5807 5806 5806 5806 5806
5753 5756 5758 5759 5759 5760 5761 5763 5764 5765 5766 5767 5768 5767 5767 5768 5769 5770 5771 5772 5773 5774 5774 5775 5776 5777 5778 5779 5780 5781 5782 5782 5783 5783 5784 5784 5784 5785 5785 5786 5786 5787 5788 5789 5790 5791 5791 5792 5792 5793 5794 5794 5794 5795 5796 5796 5797 5798 5799 5799 5800 5801 5801 5802 5802 5803 5803 5803 5803 5804 5804 5805 5805 5805 5805 5805 5806 5806 5805 5805 5804 5804 5803 5803 5803
5749 5752 5754 5755 5756 5756 5757 5759 5761 5762 5763 5764 5764 5765 5766 5766 5767 5768 5769 5770 5770 5771 5772 5773 5773 5774 5775 5776 5777 5777 5778 5779 5780 5780 5781 5782 5782 5782 5782 5783 5784 5785 5786 5786 5787 5788 5788 5789 5790 5791 5791 5792 5792 5793 5794 5794 5795 5796 5796 5797 5798 5799 5799 5800 5800 5800 5800 5800 5801 5801 5802 5802 5803 5803 5803 5803 5803 5803 5803 5802 5802 5801 5801 5800 5800
5745 5748 5750 5751 5753 5753 5753 5755 5757 5759 5760 5761 5762 5763 5764 5764 5765 5766 5767 5768 5768 5769 5770 5770 5771 5771 5772 5773 5774 5774 5775 5776 5777 5777 5778 5779 5779 5780 5780 5780 5781 5782 5783 5784 5784 5785 5786 5786 5787 5788 5789 5789 5790 5791 5791 5792 5793 5793 5794 5795 5796 5796 5796 5797 5797 5797 5797 5798 5798 5799 5799 5800 5800 5800 5800 5800 5800 5800 5799 5799 5799 5798 5798 5797 5796
5741 5744 5745 5747 5749 5749 5750 5751 5753 5754 5756 5758 5759 5761 5761 5762 5763 5763 5764 5765 5766 5767 5767 5768 5768 5769 5769 5770 5770 5771 5772 5772 5773 5774 5776 5776 5777 5777 5777 5778 5779 5780 5780 5781 5782 5782 5783 5784 5785 5786 5786 5787 5787 5788 5789 5790 5790 5791 5792 5792 5793 5793 5794 5794 5794 5794 5795 5795 5795 5796 5796 5797 5797 5797 5797 5797 5796 5796 5796 5796 5795 5795 5794 5794 5793
5737 5739 5741 5743 5745 5747 5748 5749 5749 5750 5752 5754 5757 5758 5759 5760 5760 5761 5762 5763 5763 5764 5765 5765 5765 5766 5766 5767 5767 5768 5769 5769 5771 5772 5773 5774 5774 5775 5775 5776 5777 5777 5778 5778 5779 5779 5780 5781 5782 5783 5784 5784 5785 5786 5787 5787 5788 5788 5789 5790 5790 5790 5791 5791 5791 5792 5792 5792 5793 5793 5793 5793 5794 5794 5793 5793 5793 5793 5792 5792 5792 5791 5791 5790 5789
5733 5734 5737 5739 5742 5744 5746 5746 5747 5747 5748 5751 5753 5755 5757 5757 5758 5758 5759 5760 5761 5761 5762 5762 5762 5763 5763 5764 5765 5766 5766 5767 5768 5770 5770 5771 5772 5772 5773 5773 5774 5775 5775 5776 5776 5777 5778 5779 5779 5780 5781 5782 5783 5783 5784 5785 5785 5786 5786 5787 5787 5788 5788 5788 5788 5789 5789 5789 5790 5790 5790 5790 5790 5790 5790 5790 5789 5789 5788 5788 5787 5787 5786 5786 5785
5729 5730 5733 5736 5739 5742 5744 5744 5744 5745 5745 5748 5750 5752 5753 5754 5755 5756 5756 5757 5758 5758 5759 5759 5759 5760 5761 5761 5762 5763 5764 5764 5766 5767 5768 5768 5769 5769 5770 5771 5771 5772 5773 5773 5774 5775 5776 5776 5777 5778 5779 5780 5780 5781 5781 5782 5782 5783 5784 5784 5784 5785 5785 5785 5785 5786 5786 5786 5786 5786 5786 5786 5786 5786 5786 5786 5785 5785 5784 5783 5783 5782 5782 5781 5780
5726 5727 5729 5732 5736 5739 5741 5742 5742 5742 5743 5745 5747 5749 5750 5751 5752 5753 5753 5754 5755 5755 5756 5756 5756 5757 5758 5759 5759 5760 5761 5761 5763 5764 5765 5765 5766 5767 5767 5768 5769 5770 5770 5771 5771 5772 5773 5774 5775 5775 5776 5777 5778 5778 5779 5779 5779 5780 5780 5781 5781 5781 5782 5782 5782 5783 5783 5783 5783 5783 5782 5782 5782 5782 5781 5781 5781 5780 5779 5779 5779 5778 5777 5777 5776
5723 5725 5726 5729 5732 5735 5738 5739 5740 5740 5741 5743 5745 5746 5747 5748 5749 5750 5751 5751 5752 5753 5753 5753 5754 5754 5755 5756 5756 5757 5758 5759 5760 5761 5761 5762 5763 5764 5764 5765 5766 5767 5768 5768 5769 5770 5771 5771 5772 5772 5773 5774 5775 5775 5775 5776 5776 5777 5777 5777 5778 5778 5778 5779 5779 5779 5779 5779 5779 5779 5778 5778 5778 5778 5778 5777 5777 5776 5775 5775 5775 5774 5773 5772 5771
5721 5722 5724 5726 5729 5732 5734 5736 5737 5737 5739 5740 5742 5743 5744 5745 5747 5747 5748 5749 5749 5750 5751 5751 5751 5751 5752 5752 5753 5754 5755 5756 5757 5757 5758 5759 5760 5760 5761 5762 5763 5765 5766 5766 5766 5766 5767 5768 5769 5769 5770 5771 5771 5772 5772 5772 5773 5773 5774 5774 5774 5775 5775 5775 5775 5775 5775 5775 5775 5775 5775 5774 5774 5774 5774 5774 5773 5771 5771 5771 5770 5769 5768 5767 5766
5719 5720 5721 5723 5725 5728 5731 5732 5733 5734 5735 5737 5739 5740 5741 5743 5744 5745 5745 5746 5747 5747 5748 5748 5748 5749 5749 5749 5750 5751 5752 5753 5753 5754 5755 5756 5756 5757 5758 5759 5760 5761 5763 5764 5764 5763 5762 5763 5765 5766 5767 5768 5768 5769 5769 5769 5770 5770 5771 5771 5771 5771 5771 5771 5770 5771 5771 5771 5771 5771 5771 5770 5771 5771 5770 5769 5768 5767 5767 5766 5765 5764 5763 5762 5761
5717 5718 5719 5720 5722 5724 5726 5728 5730 5731 5733 5734 5736 5737 5739 5740 5741 5742 5743 5743 5744 5744 5745 5745 5746 5746 5746 5746 5747 5748 5749 5750 5750 5751 5752 5753 5754 5754 5754 5755 5757 5758 5759 5761 5761 5760 5759 5761 5762 5763 5764 5764 5765 5765 5765 5766 5767 5767 5767 5767 5767 5768 5768 5767 5767 5767 5767 5768 5768 5768 5767 5766 5766 5766 5765 5764 5763 5762 5762 5761 5760 5759 5757 5756 5755
5715 5715 5716 5718 5719 5720 5722 5725 5727 5728 5730 5731 5733 5734 5736 5737 5738 5739 5740 5741 5741 5741 5742 5743 5743 5743 5744 5744 5744 5745 5746 5746 5747 5748 5749 5750 5751 5751 5751 5752 5753 5754 5756 5757 5757 5756 5757 5758 5758 5759 5760 5760 5761 5762 5762 5762 5763 5764 5764 5764 5764 5764 5764 5764 5763 5762 5763 5764 5764 5764 5763 5762 5761 5761 5760 5759 5759 5758 5757 5756 5754 5753 5752 5750 5749
5712 5713 5714 5715 5716 5717 5719 5721 5723 5725 5727 5728 5729 5731 5732 5733 5734 5735 5737 5738 5738 5738 5739 5739 5740 5740 5741 5741 5742 5742 5743 5743 5744 5745 5745 5746 5747 5748 5748 5749 5750 5751 5752 5753 5753 5754 5754 5754 5754 5755 5755 5756 5757 5758 5758 5758 5759 5759 5760 5760 5760 5760 5760 5760 5759 5759 5759 5759 5759 5759 5758 5757 5756 5755 5755 5755 5754 5753 5752 5750 5749 5747 5746 5744 5743
5709 5710 5711 5712 5713 5714 5715 5717 5719 5721 5723 5724 5726 5727 5729 5729 5730 5731 5733 5734 5734 5735 5735 5736 5736 5737 5737 5738 5738 5739 5739 5740 5741 5741 5742 5743 5744 5745 5745 5746 5746 5747 5748 5749 5750 5751 5752 5751 5750 5750 5752 5752 5753 5753 5754 5754 5754 5754 5755 5755 5755 5755 5756 5755 5755 5755 5755 5754 5754 5753 5752 5752 5751 5750 5750 5750 5749 5747 5746 5744 5742 5741 5740 5738 5736
5706 5707 5708 5709 5710 5711 5712 5714 5715 5717 5719 5720 5722 5723 5725 5726 5727 5727 5728 5729 5730 5731 5732 5732 5732 5733 5733 5734 5735 5736 5736 5737 5738 5738 5739 5740 5741 5742 5742 5743 5743 5744 5745 5746 5746 5747 5748 5748 5747 5747 5748 5749 5749 5749 5750 5750 5750 5750 5750 5750 5750 5750 5751 5750 5751 5751 5750 5749 5748 5747 5746 5746 5746 5745 5744 5744 5742 5741 5739 5737 5736 5735 5733 5731 5729
5703 5704 5705 5706 5707 5708 5710 5711 5712 5713 5714 5716 5717 5719 5720 5722 5722 5723 5724 5725 5726 5727 5728 5729 5729 5729 5729 5730 5731 5732 5733 5733 5734 5735 5735 5736 5737 5738 5738 5738 5739 5739 5740 5741 5741 5742 5744 5745 5743 5743 5744 5744 5745 5745 5745 5745 5745 5745 5745 5745 5745 5745 5745 5745 5746 5746 5745 5744 5743 5742 5741 5741 5740 5740 5739 5738 5736 5735 5733 5731 5729 5728 5726 5724 5722
5699 5700 5701 5702 5703 5705 5707 5707 5708 5709 5710 5711 5713 5714 5715 5716 5717 5719 5720 5720 5721 5722 5723 5725 5725 5725 5725 5726 5727 5728 5728 5729 5730 5730 5731 5732 5733 5733 5733 5733 5734 5735 5736 5737 5738 5738 5739 5740 5741 5740 5739 5739 5740 5740 5740 5741 5740 5740 5741 5740 5740 5740 5740 5740 5740 5740 5740 5739 5737 5737 5737 5736 5735 5734 5733 5732 5731 5730 5728 5725 5723 5722 5720 5718 5717
5696 5696 5697 5698 5698 5700 5702 5702 5703 5705 5706 5707 5708 5709 5710 5711 5712 5714 5714 5715 5716 5717 5718 5720 5721 5721 5721 5722 5723 5723 5724 5725 5725 5726 5727 5728 5729 5729 5729 5729 5730 5731 5732 5733 5734 5734 5735 5737 5737 5736 5735 5735 5735 5735 5735 5735 5735 5735 5735 5735 5735 5735 5734 5734 5734 5734 5733 5733 5732 5731 5731 5730 5729 5728 5727 5726 5725 5724 5722 5720 5718 5716 5714 5713 5712
5692 5693 5693 5694 5694 5695 5696 5697 5698 5700 5702 5702 5703 5704 5705 5706 5707 5708 5709 5710 5711 5712 5713 5715 5716 5717 5717 5718 5718 5719 5719 5720 5721 5722 5723 5724 5724 5725 5725 5725 5726 5727 5728 5729 5730 5730 5731 5733 5733 5732 5731 5731 5730 5730 5731 5730 5729 5730 5730 5730 5730 5730 5730 5729 5729 5728 5728 5728 5727 5726 5725 5724 5723 5722 5721 5720 5719 5718 5716 5713 5711 5709 5708 5707 5705
5688 5689 5690 5690 5690 5691 5692 5693 5694 5695 5696 5697 5698 5699 5700 5701 5702 5703 5704 5705 5706 5707 5708 5709 5711 5712 5712 5713 5714 5715 5715 5716 5716 5717 5718 5718 5719 5720 5721 5721 5722 5723 5723 5725 5725 5726 5727 5728 5728 5727 5726 5725 5725 5725 5725 5725 5725 5725 5726 5726 5725 5724 5725 5725 5724 5723 5722 5723 5723 5721 5720 5719 5717 5716 5715 5714 5713 5712 5710 5707 5704 5702 5701 5699 5698